• In Latvia
  • List of Countries
  • For 7 days
  • Water Temperature
  • Satellite Maps
  • Weather Map
  • Weather Widgets
  • user-avatar
    Login

    Hourly Weather Dzhalalkuduk

    Today, 19 February, Monday

    Time Temperature Precipitation Wind Pressure Humidity
    00:00 +2°C° 0 mm 2 mps 710 mmHg 52%
    01:00 +1°C° 0 mm 2 mps 710 mmHg 51%
    02:00 +1°C° 0 mm 2 mps 710 mmHg 50%
    03:00 +1°C° 0 mm 2 mps 710 mmHg 49%
    04:00 0°C° 0 mm 3 mps 710 mmHg 48%
    05:00 0°C° 0 mm 3 mps 709 mmHg 48%
    06:00 0°C° 0 mm 3 mps 709 mmHg 49%
    07:00 0°C° 0 mm 3 mps 709 mmHg 49%
    08:00 0°C° 0 mm 3 mps 709 mmHg 49%
    09:00 +2°C° 0 mm 3 mps 708 mmHg 49%
    10:00 +5°C° 0 mm 2 mps 707 mmHg 50%
    11:00 +8°C° 0 mm 2 mps 706 mmHg 50%
    12:00 +8°C° 0 mm 2 mps 705 mmHg 49%
    13:00 +9°C° 0 mm 2 mps 704 mmHg 48%
    14:00 +10°C° 0 mm 2 mps 704 mmHg 47%
    15:00 +10°C° 0 mm 2 mps 704 mmHg 47%
    16:00 +10°C° 0 mm 1 mps 704 mmHg 47%
    17:00 +10°C° 0 mm 1 mps 704 mmHg 48%
    18:00 +8°C° 0 mm 2 mps 704 mmHg 47%
    19:00 +7°C° 0 mm 2 mps 704 mmHg 47%
    20:00 +7°C° 0 mm 2 mps 705 mmHg 47%
    21:00 +7°C° 0 mm 2 mps 705 mmHg 47%
    22:00 +7°C° 0 mm 2 mps 705 mmHg 47%
    23:00 +7°C° 0 mm 2 mps 704 mmHg 47%

    Tomorrow, 20 February, Tuesday

    Time Temperature Precipitation Wind Pressure Humidity
    00:00 +7°C° 0 mm 2 mps 704 mmHg 48%
    01:00 +7°C° 0 mm 2 mps 704 mmHg 48%
    02:00 +7°C° 0 mm 2 mps 704 mmHg 48%
    03:00 +7°C° 0 mm 2 mps 704 mmHg 48%
    04:00 +7°C° 0 mm 2 mps 704 mmHg 49%
    05:00 +7°C° 0 mm 3 mps 704 mmHg 49%
    06:00 +7°C° 0 mm 3 mps 704 mmHg 49%
    07:00 +7°C° 0 mm 3 mps 704 mmHg 49%
    08:00 +8°C° 0 mm 3 mps 704 mmHg 50%
    09:00 +9°C° 0 mm 3 mps 703 mmHg 49%
    10:00 +12°C° 0 mm 2 mps 702 mmHg 48%
    11:00 +14°C° 0 mm 2 mps 701 mmHg 47%
    12:00 +15°C° 0 mm 2 mps 701 mmHg 47%
    13:00 +16°C° 0 mm 2 mps 700 mmHg 46%
    14:00 +17°C° 0 mm 2 mps 700 mmHg 45%
    15:00 +16°C° 0 mm 2 mps 699 mmHg 47%
    16:00 +15°C° 0 mm 1 mps 699 mmHg 49%
    17:00 +14°C° 0 mm 1 mps 699 mmHg 52%
    18:00 +13°C° 0 mm 1 mps 699 mmHg 53%
    19:00 +12°C° 0 mm 1 mps 700 mmHg 54%
    20:00 +11°C° 0 mm 1 mps 700 mmHg 55%
    21:00 +11°C° 0 mm 1 mps 700 mmHg 55%
    22:00 +10°C° 0 mm 1 mps 700 mmHg 56%
    23:00 +10°C° 0 mm 1 mps 700 mmHg 56%

    Day after tomorrow, 21 February, Wednesday

    Time Temperature Precipitation Wind Pressure Humidity
    00:00 +9°C° 0 mm 1 mps 700 mmHg 60%
    01:00 +9°C° 0 mm 1 mps 700 mmHg 64%
    02:00 +8°C° 0 mm 1 mps 701 mmHg 67%
    03:00 +7°C° 0.1 mm 2 mps 701 mmHg 70%
    04:00 +7°C° 0.1 mm 2 mps 701 mmHg 72%
    05:00 +6°C° 0.1 mm 2 mps 702 mmHg 75%
    06:00 +6°C° 0.6 mm 2 mps 703 mmHg 78%
    07:00 +7°C° 0.6 mm 1 mps 703 mmHg 80%
    08:00 +7°C° 0.6 mm 1 mps 704 mmHg 83%
    09:00 +8°C° 0.7 mm 1 mps 704 mmHg 84%
    10:00 +8°C° 0.7 mm 1 mps 704 mmHg 85%
    11:00 +8°C° 0.7 mm 1 mps 704 mmHg 85%
    12:00 +8°C° 0.3 mm 1 mps 704 mmHg 84%
    13:00 +8°C° 0.3 mm 1 mps 703 mmHg 83%
    14:00 +9°C° 0.3 mm 1 mps 703 mmHg 82%
    15:00 +9°C° 0.2 mm 1 mps 704 mmHg 82%
    16:00 +9°C° 0.2 mm 1 mps 704 mmHg 82%
    17:00 +9°C° 0.2 mm 1 mps 704 mmHg 82%
    18:00 +8°C° 0.1 mm 1 mps 705 mmHg 83%
    19:00 +8°C° 0.1 mm 1 mps 706 mmHg 85%
    20:00 +7°C° 0.1 mm 1 mps 707 mmHg 86%
    21:00 +7°C° 0 mm 1 mps 707 mmHg 85%
    22:00 +7°C° 0 mm 1 mps 707 mmHg 84%
    23:00 +5°C° 0 mm 2 mps 707 mmHg 83%

    22 February, Thursday

    Time Temperature Precipitation Wind Pressure Humidity
    00:00 +5°C° 0 mm 2 mps 707 mmHg 80%
    01:00 +5°C° 0 mm 2 mps 708 mmHg 77%
    02:00 +5°C° 0 mm 2 mps 708 mmHg 74%
    03:00 +4°C° 0 mm 2 mps 708 mmHg 72%
    04:00 +4°C° 0 mm 2 mps 708 mmHg 70%
    05:00 +4°C° 0 mm 2 mps 708 mmHg 67%
    06:00 +4°C° 0 mm 2 mps 708 mmHg 66%
    07:00 +5°C° 0 mm 2 mps 708 mmHg 64%
    08:00 +5°C° 0 mm 2 mps 708 mmHg 62%
    09:00 +8°C° 0 mm 1 mps 707 mmHg 59%
    10:00 +9°C° 0 mm 1 mps 706 mmHg 56%
    11:00 +11°C° 0 mm 1 mps 705 mmHg 53%
    12:00 +12°C° 0 mm 1 mps 705 mmHg 51%
    13:00 +12°C° 0 mm 1 mps 704 mmHg 49%
    14:00 +13°C° 0 mm 1 mps 703 mmHg 48%
    15:00 +13°C° 0 mm 1 mps 704 mmHg 48%
    16:00 +12°C° 0 mm 1 mps 704 mmHg 49%
    17:00 +12°C° 0 mm 1 mps 704 mmHg 50%
    18:00 +11°C° 0 mm 1 mps 704 mmHg 52%
    19:00 +10°C° 0 mm 1 mps 705 mmHg 54%
    20:00 +9°C° 0 mm 1 mps 706 mmHg 56%
    21:00 +8°C° 0 mm 2 mps 706 mmHg 55%
    22:00 +8°C° 0 mm 2 mps 706 mmHg 55%
    23:00 +7°C° 0 mm 2 mps 706 mmHg 55%

    23 February, Friday

    Time Temperature Precipitation Wind Pressure Humidity
    00:00 +7°C° 0 mm 2 mps 706 mmHg 54%
    01:00 +7°C° 0 mm 2 mps 706 mmHg 53%
    02:00 +6°C° 0 mm 2 mps 706 mmHg 52%
    03:00 +6°C° 0 mm 2 mps 705 mmHg 51%
    04:00 +6°C° 0 mm 2 mps 705 mmHg 50%
    05:00 +6°C° 0 mm 2 mps 705 mmHg 49%
    06:00 +6°C° 0 mm 2 mps 705 mmHg 49%
    07:00 +6°C° 0 mm 2 mps 705 mmHg 49%
    08:00 +8°C° 0 mm 1 mps 705 mmHg 49%
    09:00 +9°C° 0 mm 1 mps 704 mmHg 46%
    10:00 +10°C° 0 mm 1 mps 703 mmHg 44%
    11:00 +12°C° 0 mm 1 mps 703 mmHg 42%
    12:00 +12°C° 0 mm 1 mps 702 mmHg 40%
    13:00 +13°C° 0 mm 1 mps 702 mmHg 39%
    14:00 +13°C° 0 mm 1 mps 702 mmHg 38%
    15:00 +13°C° 0 mm 1 mps 702 mmHg 39%
    16:00 +12°C° 0 mm 1 mps 702 mmHg 40%
    17:00 +12°C° 0 mm 1 mps 703 mmHg 41%
    18:00 +11°C° 0 mm 1 mps 703 mmHg 43%
    19:00 +11°C° 0 mm 1 mps 704 mmHg 45%
    20:00 +10°C° 0 mm 1 mps 705 mmHg 47%
    21:00 +9°C° 0 mm 1 mps 705 mmHg 48%
    22:00 +9°C° 0 mm 1 mps 705 mmHg 48%
    23:00 +9°C° 0 mm 1 mps 705 mmHg 49%

    24 February, Saturday

    Time Temperature Precipitation Wind Pressure Humidity
    00:00 +8°C° 0 mm 1 mps 706 mmHg 49%
    01:00 +7°C° 0 mm 2 mps 706 mmHg 50%
    02:00 +7°C° 0 mm 2 mps 706 mmHg 50%
    03:00 +6°C° 0 mm 2 mps 706 mmHg 51%
    04:00 +6°C° 0 mm 2 mps 707 mmHg 51%
    05:00 +6°C° 0 mm 2 mps 707 mmHg 51%
    06:00 +6°C° 0 mm 2 mps 707 mmHg 50%
    07:00 +7°C° 0 mm 2 mps 707 mmHg 50%
    08:00 +7°C° 0 mm 2 mps 708 mmHg 49%
    09:00 +9°C° 0 mm 2 mps 707 mmHg 45%
    10:00 +12°C° 0 mm 2 mps 706 mmHg 41%
    11:00 +14°C° 0 mm 1 mps 705 mmHg 37%
    12:00 +15°C° 0 mm 1 mps 705 mmHg 36%
    13:00 +15°C° 0 mm 1 mps 705 mmHg 35%
    14:00 +16°C° 0 mm 1 mps 704 mmHg 34%
    15:00 +16°C° 0 mm 1 mps 704 mmHg 36%
    16:00 +16°C° 0 mm 1 mps 704 mmHg 38%
    17:00 +15°C° 0 mm 1 mps 704 mmHg 41%
    18:00 +14°C° 0 mm 1 mps 704 mmHg 43%
    19:00 +13°C° 0 mm 1 mps 705 mmHg 45%
    20:00 +12°C° 0 mm 2 mps 705 mmHg 48%
    21:00 +12°C° 0 mm 2 mps 705 mmHg 48%
    22:00 +10°C° 0 mm 2 mps 705 mmHg 49%
    23:00 +10°C° 0 mm 2 mps 705 mmHg 49%
    Show more